Weather History for South Pass, WY

Change the Weather History Date:

Thursday, May 23, 2013

  Actual Average (KLND) Record (KLND)
Temperature  
Mean Temperature 54 °F 56 °F  
Max Temperature 66 °F 69 °F 85 °F (1984)
Min Temperature 41 °F 42 °F 26 °F (1916)
Degree Days  
Heating Degree Days 12 10  
Month to date heating degree days 300  
Since 1 July heating degree days 7554  
Cooling Degree Days 0 0  
Month to date cooling degree days 0  
Year to date cooling degree days 0  
Growing Degree Days 4 (Base 50)    
Moisture  
Dew Point 26 °F    
Average Humidity 44    
Maximum Humidity 81    
Minimum Humidity 14    
Precipitation  
Precipitation 0.00 in 0.07 in 1.46 in (1906)
Month to date precipitation 1.67  
Year to date precipitation 5.69  
Snow  
Snow 0.00 in 0.10 in - ()
Month to date snowfall 4.6  
Since 1 July snowfall 91.1  
Snow Depth -    
Sea Level Pressure  
Sea Level Pressure 29.87 in    
Wind  
Wind Speed 10 mph (SSE)    
Max Wind Speed 29 mph    
Max Gust Speed 48 mph    
Visibility 10 miles    
Events      
T = Trace of Precipitation, MM = Missing Value Source: NWS Daily Summary

Daily Weather History Graph

Daily Weather History Graph

Search for Another Location

Airport:

Trip Planner

Search our weather history database for the weather conditions in past years. The results will help you decide how hot, cold, wet, or windy it might be!

Date:

Astronomy

May. 23, 2013 Rise Set
Actual Time 5:45 AM MDT 8:38 PM MDT
Civil Twilight 5:12 AM MDT 9:11 PM MDT
Nautical Twilight 4:30 AM MDT 9:54 PM MDT
Astronomical Twilight 3:41 AM MDT 10:43 PM MDT
Moon 7:13 PM MDT (5/23) 4:35 AM MDT (5/23)
Length of Visible Light 15h 59m
Length of Day
14h 52m
Waxing Gibbous, 97% of the Moon is Illuminated
May 23
Waxing Gibbous
May 24
Full
May 31
Last Quarter
Jun 8
New
Jun 16
First Quarter

Hourly Weather History & Observations

Time (MDT) Temp. Windchill Dew Point Humidity Pressure Visibility Wind Dir Wind Speed Gust Speed Precip Events Conditions
12:15 AM 44.6 °F 43.1 °F 35.6 °F 71% 29.90 in 10.0 mi ENE 3.5 mph - N/A   Clear
12:35 AM 44.6 °F 40.7 °F 35.6 °F 71% 29.90 in 10.0 mi East 6.9 mph - N/A   Scattered Clouds
12:55 AM 42.8 °F 38.6 °F 35.6 °F 76% 29.90 in 10.0 mi NE 6.9 mph - N/A   Clear
1:15 AM 42.8 °F 37.5 °F 35.6 °F 76% 29.90 in 10.0 mi East 9.2 mph - N/A   Clear
1:35 AM 42.8 °F 38.6 °F 35.6 °F 76% 29.90 in 10.0 mi NNE 6.9 mph - N/A   Clear
1:55 AM 42.8 °F 38.0 °F 35.6 °F 76% 29.89 in 10.0 mi NE 8.1 mph - N/A   Clear
2:15 AM 42.8 °F 38.0 °F 35.6 °F 76% 29.89 in 10.0 mi NNE 8.1 mph - N/A   Scattered Clouds
2:35 AM 42.8 °F 38.0 °F 35.6 °F 76% 29.89 in 10.0 mi NE 8.1 mph - N/A   Clear
2:55 AM 42.8 °F 38.0 °F 35.6 °F 76% 29.89 in 10.0 mi ENE 8.1 mph - N/A   Clear
3:15 AM 42.8 °F 38.0 °F 35.6 °F 76% 29.90 in 10.0 mi ENE 8.1 mph - N/A   Clear
3:35 AM 42.8 °F 41.1 °F 35.6 °F 76% 29.90 in 10.0 mi ENE 3.5 mph - N/A   Clear
3:55 AM 42.8 °F 39.3 °F 35.6 °F 76% 29.89 in 10.0 mi ENE 5.8 mph - N/A   Clear
4:15 AM 42.8 °F 38.6 °F 35.6 °F 76% 29.89 in 10.0 mi East 6.9 mph - N/A   Clear
4:35 AM 42.8 °F 40.1 °F 35.6 °F 76% 29.89 in 10.0 mi ENE 4.6 mph - N/A   Clear
4:55 AM 42.8 °F 38.6 °F 35.6 °F 76% 29.90 in 10.0 mi NE 6.9 mph - N/A   Clear
5:15 AM 41.0 °F 37.1 °F 35.6 °F 81% 29.90 in 10.0 mi NNE 5.8 mph - N/A   Clear
5:35 AM 41.0 °F 39.0 °F 35.6 °F 81% 29.91 in 10.0 mi NW 3.5 mph - N/A   Mostly Cloudy
5:55 AM 42.8 °F - 35.6 °F 76% 29.91 in 10.0 mi Calm Calm - N/A   Mostly Cloudy
6:15 AM 42.8 °F - 33.8 °F 70% 29.91 in 10.0 mi Calm Calm - N/A   Scattered Clouds
6:35 AM 42.8 °F 39.3 °F 33.8 °F 70% 29.91 in 10.0 mi ESE 5.8 mph - N/A   Scattered Clouds
6:55 AM 42.8 °F 41.1 °F 33.8 °F 70% 29.91 in 10.0 mi East 3.5 mph - N/A   Mostly Cloudy
7:15 AM 42.8 °F 39.3 °F 35.6 °F 76% 29.91 in 10.0 mi ESE 5.8 mph - N/A   Scattered Clouds
7:35 AM 44.6 °F 43.1 °F 35.6 °F 71% 29.91 in 10.0 mi ESE 3.5 mph - N/A   Clear
7:55 AM 44.6 °F 42.2 °F 35.6 °F 71% 29.92 in 10.0 mi SE 4.6 mph - N/A   Clear
8:15 AM 46.4 °F 43.5 °F 33.8 °F 62% 29.92 in 10.0 mi SSE 5.8 mph - N/A   Clear
8:35 AM 46.4 °F 45.2 °F 35.6 °F 66% 29.92 in 10.0 mi East 3.5 mph - N/A   Clear
8:55 AM 46.4 °F 44.3 °F 35.6 °F 66% 29.91 in 10.0 mi SE 4.6 mph - N/A   Clear
9:15 AM 48.2 °F - 35.6 °F 62% 29.92 in 10.0 mi SE 8.1 mph - N/A   Clear
9:35 AM 46.4 °F 43.5 °F 37.4 °F 71% 29.92 in 10.0 mi SE 5.8 mph - N/A   Clear
9:55 AM 48.2 °F - 37.4 °F 66% 29.92 in 10.0 mi SSE 6.9 mph - N/A   Clear
10:15 AM 51.8 °F - 37.4 °F 58% 29.92 in 10.0 mi SE 6.9 mph - N/A   Clear
10:35 AM 53.6 °F - 37.4 °F 54% 29.91 in 10.0 mi SE 10.4 mph - N/A   Clear
10:55 AM 57.2 °F - 30.2 °F 36% 29.90 in 10.0 mi SSE 23.0 mph 31.1 mph N/A   Clear
11:15 AM 60.8 °F - 19.4 °F 20% 29.89 in 10.0 mi South 19.6 mph 40.3 mph N/A   Clear
11:35 AM 60.8 °F - 19.4 °F 20% 29.89 in 10.0 mi South 20.7 mph 34.5 mph N/A   Clear
11:55 AM 60.8 °F - 21.2 °F 22% 29.88 in 10.0 mi South 19.6 mph 39.1 mph N/A   Scattered Clouds
12:15 PM 62.6 °F - 19.4 °F 19% 29.89 in 10.0 mi South 28.8 mph 41.4 mph N/A   Scattered Clouds
12:35 PM 62.6 °F - 17.6 °F 18% 29.88 in 10.0 mi South 26.5 mph 40.3 mph N/A   Scattered Clouds
12:55 PM 62.6 °F - 17.6 °F 18% 29.87 in 10.0 mi SSW 20.7 mph 40.3 mph N/A   Scattered Clouds
1:15 PM 62.6 °F - 14.0 °F 15% 29.87 in 10.0 mi South 24.2 mph 40.3 mph N/A   Scattered Clouds
1:35 PM 64.4 °F - 15.8 °F 15% 29.86 in 10.0 mi South 26.5 mph 41.4 mph N/A   Mostly Cloudy
1:55 PM 64.4 °F - 15.8 °F 15% 29.86 in 10.0 mi South 26.5 mph 46.0 mph N/A   Mostly Cloudy
2:15 PM 64.4 °F - 14.0 °F 14% 29.86 in 10.0 mi South 24.2 mph 44.9 mph N/A   Scattered Clouds
2:35 PM 64.4 °F - 14.0 °F 14% 29.86 in 10.0 mi South 21.9 mph 48.3 mph N/A   Scattered Clouds
2:55 PM 62.6 °F - 15.8 °F 16% 29.86 in 10.0 mi South 21.9 mph 43.7 mph N/A   Mostly Cloudy
3:15 PM 64.4 °F - 19.4 °F 18% 29.85 in 10.0 mi South 19.6 mph 34.5 mph N/A   Overcast
3:35 PM 62.6 °F - 17.6 °F 18% 29.85 in 10.0 mi South 20.7 mph 39.1 mph N/A   Overcast
3:55 PM 62.6 °F - 17.6 °F 18% 29.84 in 10.0 mi South 26.5 mph 47.2 mph N/A   Overcast
4:15 PM 62.6 °F - 17.6 °F 18% 29.83 in 10.0 mi South 17.3 mph 39.1 mph N/A   Overcast
4:35 PM 66.2 °F - 17.6 °F 15% 29.83 in 10.0 mi South 26.5 mph 34.5 mph N/A   Overcast
4:55 PM 64.4 °F - 17.6 °F 16% 29.83 in 10.0 mi South 27.6 mph 40.3 mph N/A   Overcast
5:15 PM 62.6 °F - 15.8 °F 16% 29.82 in 10.0 mi South 25.3 mph 38.0 mph N/A   Overcast
5:35 PM 64.4 °F - 14.0 °F 14% 29.82 in 10.0 mi South 25.3 mph 40.3 mph N/A   Overcast
5:55 PM 62.6 °F - 14.0 °F 15% 29.81 in 10.0 mi South 21.9 mph 34.5 mph N/A   Mostly Cloudy
6:15 PM 62.6 °F - 14.0 °F 15% 29.82 in 10.0 mi South 20.7 mph 34.5 mph N/A   Overcast
6:35 PM 62.6 °F - 14.0 °F 15% 29.81 in 10.0 mi South 19.6 mph 38.0 mph N/A   Overcast
6:55 PM 62.6 °F - 14.0 °F 15% 29.81 in 10.0 mi South 23.0 mph 33.4 mph N/A   Overcast
7:15 PM 62.6 °F - 14.0 °F 15% 29.80 in 10.0 mi South 26.5 mph 34.5 mph N/A   Overcast
7:35 PM 62.6 °F - 14.0 °F 15% 29.81 in 10.0 mi South 23.0 mph 35.7 mph N/A   Overcast
7:55 PM 60.8 °F - 15.8 °F 17% 29.81 in 10.0 mi South 21.9 mph 31.1 mph N/A   Mostly Cloudy
8:15 PM 60.8 °F - 19.4 °F 20% 29.81 in 10.0 mi WSW 13.8 mph 26.5 mph N/A   Overcast
8:35 PM 59.0 °F - 21.2 °F 23% 29.82 in 10.0 mi WSW 12.7 mph 17.3 mph N/A   Overcast
8:55 PM 55.4 °F - 24.8 °F 31% 29.83 in 10.0 mi WSW 9.2 mph - N/A   Scattered Clouds
9:15 PM 55.4 °F - 24.8 °F 31% 29.83 in 10.0 mi West 5.8 mph - N/A   Clear
9:35 PM 53.6 °F - 24.8 °F 33% 29.84 in 10.0 mi WSW 8.1 mph - N/A   Clear
9:55 PM 53.6 °F - 24.8 °F 33% 29.84 in 10.0 mi WSW 5.8 mph - N/A   Clear
10:15 PM 55.4 °F - 23.0 °F 29% 29.85 in 10.0 mi WSW 5.8 mph - N/A   Clear
10:35 PM 53.6 °F - 23.0 °F 30% 29.85 in 10.0 mi WSW 6.9 mph - N/A   Clear
10:55 PM 53.6 °F - 23.0 °F 30% 29.85 in 10.0 mi SW 5.8 mph - N/A   Clear
11:15 PM 53.6 °F - 23.0 °F 30% 29.86 in 10.0 mi SW 6.9 mph - N/A   Clear
11:35 PM 51.8 °F - 24.8 °F 35% 29.87 in 10.0 mi WSW 5.8 mph - N/A   Clear
11:55 PM 51.8 °F - 24.8 °F 35% 29.86 in 10.0 mi West 5.8 mph - N/A   Clear